Data supplied by UK-AIR on 8/5/2020
All Data GMT hour ending 
Status: R =Ratified P=Provisional,P*=As supplied
,,Bradford Mayo Avenue,,,,,,,,,,,,,,,,,,,,,,,
Date,time,"Nitric oxide",status,unit,"Nitrogen dioxide",status,unit,"Nitrogen oxides as nitrogen dioxide",status,unit
 
01-01-2019,01:00,13.74599,R,ugm-3,13.49160,R,ugm-3,34.56848,R,ugm-3
01-01-2019,02:00,10.91473,R,ugm-3,14.55587,R,ugm-3,31.29155,R,ugm-3
01-01-2019,03:00,5.35478,R,ugm-3,8.36690,R,ugm-3,16.57745,R,ugm-3
01-01-2019,04:00,6.58577,R,ugm-3,7.44322,R,ugm-3,17.54126,R,ugm-3
01-01-2019,05:00,5.07781,R,ugm-3,6.52664,R,ugm-3,14.31251,R,ugm-3
01-01-2019,06:00,5.41633,R,ugm-3,7.06777,R,ugm-3,15.37269,R,ugm-3
01-01-2019,07:00,6.37034,R,ugm-3,7.67715,R,ugm-3,17.44488,R,ugm-3
01-01-2019,08:00,3.47753,R,ugm-3,7.39009,R,ugm-3,12.72223,R,ugm-3
01-01-2019,09:00,3.56985,R,ugm-3,5.56187,R,ugm-3,11.03557,R,ugm-3
01-01-2019,10:00,8.40147,R,ugm-3,10.44202,R,ugm-3,23.32409,R,ugm-3
01-01-2019,11:00,16.74138,R,ugm-3,17.50871,R,ugm-3,43.17848,R,ugm-3
01-01-2019,12:00,32.40566,R,ugm-3,26.59721,R,ugm-3,76.28519,R,ugm-3
01-01-2019,13:00,47.66986,R,ugm-3,38.85322,R,ugm-3,111.94599,R,ugm-3
01-01-2019,14:00,49.94718,R,ugm-3,38.78289,R,ugm-3,115.36750,R,ugm-3
01-01-2019,15:00,50.16260,R,ugm-3,49.05444,R,ugm-3,125.96935,R,ugm-3
01-01-2019,16:00,56.87146,R,ugm-3,59.97137,R,ugm-3,147.17307,R,ugm-3
01-01-2019,17:00,91.73909,R,ugm-3,73.10738,R,ugm-3,213.77202,R,ugm-3
01-01-2019,18:00,68.35039,R,ugm-3,61.06842,R,ugm-3,165.87089,R,ugm-3
01-01-2019,19:00,74.56686,R,ugm-3,63.68058,R,ugm-3,178.01484,R,ugm-3
01-01-2019,20:00,54.96344,R,ugm-3,56.39129,R,ugm-3,140.66738,R,ugm-3
01-01-2019,21:00,47.79296,R,ugm-3,54.47088,R,ugm-3,127.75239,R,ugm-3
01-01-2019,22:00,36.28326,R,ugm-3,39.54223,R,ugm-3,95.17577,R,ugm-3
01-01-2019,23:00,21.17293,R,ugm-3,34.85710,R,ugm-3,67.32180,R,ugm-3
01-01-2019,24:00,21.11138,R,ugm-3,28.54217,R,ugm-3,60.91250,R,ugm-3
02-01-2019,01:00,13.94611,R,ugm-3,21.22443,R,ugm-3,42.60817,R,ugm-3
02-01-2019,02:00,9.40647,R,ugm-3,19.91977,R,ugm-3,34.34283,R,ugm-3
02-01-2019,03:00,7.94438,R,ugm-3,15.69030,R,ugm-3,27.87151,R,ugm-3
02-01-2019,04:00,8.22044,R,ugm-3,10.26937,R,ugm-3,22.87386,R,ugm-3
02-01-2019,05:00,12.72941,R,ugm-3,15.99400,R,ugm-3,35.51215,R,ugm-3
02-01-2019,06:00,35.42763,R,ugm-3,32.03203,R,ugm-3,86.35363,R,ugm-3
02-01-2019,07:00,43.24931,R,ugm-3,47.23769,R,ugm-3,113.55238,R,ugm-3
02-01-2019,08:00,73.79989,R,ugm-3,65.65190,R,ugm-3,178.81016,R,ugm-3
02-01-2019,09:00,39.81391,R,ugm-3,53.75466,R,ugm-3,114.80179,R,ugm-3
02-01-2019,10:00,50.05878,R,ugm-3,55.24952,R,ugm-3,132.00524,R,ugm-3
02-01-2019,11:00,62.08270,R,ugm-3,57.62062,R,ugm-3,152.81276,R,ugm-3
02-01-2019,12:00,52.11389,R,ugm-3,56.47134,R,ugm-3,136.37819,R,ugm-3
02-01-2019,13:00,75.70163,R,ugm-3,63.79313,R,ugm-3,179.86735,R,ugm-3
02-01-2019,14:00,80.42532,R,ugm-3,69.62103,R,ugm-3,192.93813,R,ugm-3
02-01-2019,15:00,,,,,,,,,
02-01-2019,16:00,124.19607,R,ugm-3,97.99076,R,ugm-3,288.42208,R,ugm-3
02-01-2019,17:00,152.41548,R,ugm-3,110.89711,R,ugm-3,344.59759,R,ugm-3
02-01-2019,18:00,95.20983,R,ugm-3,92.69948,R,ugm-3,238.68585,R,ugm-3
02-01-2019,19:00,100.51631,R,ugm-3,91.96336,R,ugm-3,246.08622,R,ugm-3
02-01-2019,20:00,63.37098,R,ugm-3,76.83725,R,ugm-3,174.00472,R,ugm-3
02-01-2019,21:00,57.14430,R,ugm-3,70.76702,R,ugm-3,158.38707,R,ugm-3
02-01-2019,22:00,58.15652,R,ugm-3,66.86032,R,ugm-3,156.03241,R,ugm-3
02-01-2019,23:00,32.78973,R,ugm-3,51.79052,R,ugm-3,102.06739,R,ugm-3
02-01-2019,24:00,24.10919,R,ugm-3,39.63169,R,ugm-3,76.59860,R,ugm-3
03-01-2019,01:00,12.00940,R,ugm-3,32.18138,R,ugm-3,50.59554,R,ugm-3
03-01-2019,02:00,12.94892,R,ugm-3,34.13091,R,ugm-3,53.98564,R,ugm-3
03-01-2019,03:00,8.73133,R,ugm-3,28.15679,R,ugm-3,41.54463,R,ugm-3
03-01-2019,04:00,12.43831,R,ugm-3,31.77959,R,ugm-3,50.85140,R,ugm-3
03-01-2019,05:00,18.10602,R,ugm-3,27.69464,R,ugm-3,55.45681,R,ugm-3
03-01-2019,06:00,23.28354,R,ugm-3,34.33968,R,ugm-3,70.04061,R,ugm-3
03-01-2019,07:00,36.97794,R,ugm-3,42.41355,R,ugm-3,99.11225,R,ugm-3
03-01-2019,08:00,51.19315,R,ugm-3,58.41993,R,ugm-3,136.91499,R,ugm-3
03-01-2019,09:00,92.91970,R,ugm-3,82.42262,R,ugm-3,224.89751,R,ugm-3
03-01-2019,10:00,90.83644,R,ugm-3,73.04799,R,ugm-3,212.32858,R,ugm-3
03-01-2019,11:00,76.46804,R,ugm-3,62.60148,R,ugm-3,179.85084,R,ugm-3
03-01-2019,12:00,122.79003,R,ugm-3,90.35187,R,ugm-3,278.62729,R,ugm-3
03-01-2019,13:00,113.20089,R,ugm-3,91.52662,R,ugm-3,265.09890,R,ugm-3
03-01-2019,14:00,104.43892,R,ugm-3,83.75737,R,ugm-3,243.89482,R,ugm-3
03-01-2019,15:00,146.50248,R,ugm-3,102.11023,R,ugm-3,326.74423,R,ugm-3
03-01-2019,16:00,113.23152,R,ugm-3,94.40600,R,ugm-3,268.02525,R,ugm-3
03-01-2019,17:00,136.05552,R,ugm-3,113.71516,R,ugm-3,322.33071,R,ugm-3
03-01-2019,18:00,142.06022,R,ugm-3,113.47903,R,ugm-3,331.30166,R,ugm-3
03-01-2019,19:00,103.24411,R,ugm-3,100.55698,R,ugm-3,258.86240,R,ugm-3
03-01-2019,20:00,105.84819,R,ugm-3,99.73033,R,ugm-3,262.02862,R,ugm-3
03-01-2019,21:00,91.14280,R,ugm-3,88.07352,R,ugm-3,227.82386,R,ugm-3
03-01-2019,22:00,64.73436,R,ugm-3,73.87665,R,ugm-3,173.13462,R,ugm-3
03-01-2019,23:00,77.72413,R,ugm-3,75.54715,R,ugm-3,194.72248,R,ugm-3
03-01-2019,24:00,30.88132,R,ugm-3,58.81358,R,ugm-3,106.16429,R,ugm-3
04-01-2019,01:00,45.32761,R,ugm-3,57.95443,R,ugm-3,127.45580,R,ugm-3
04-01-2019,02:00,25.41774,R,ugm-3,50.16912,R,ugm-3,89.14243,R,ugm-3
04-01-2019,03:00,21.81723,R,ugm-3,50.02263,R,ugm-3,83.47525,R,ugm-3
04-01-2019,04:00,11.10751,R,ugm-3,46.42524,R,ugm-3,63.45651,R,ugm-3
04-01-2019,05:00,11.90309,R,ugm-3,26.86284,R,ugm-3,45.11399,R,ugm-3
04-01-2019,06:00,28.88564,R,ugm-3,34.63483,R,ugm-3,78.92553,R,ugm-3
04-01-2019,07:00,43.42026,R,ugm-3,45.92081,R,ugm-3,112.49762,R,ugm-3
04-01-2019,08:00,47.45936,R,ugm-3,54.76562,R,ugm-3,127.53562,R,ugm-3
04-01-2019,09:00,65.14569,R,ugm-3,63.75729,R,ugm-3,163.64596,R,ugm-3
04-01-2019,10:00,70.89834,R,ugm-3,57.90597,R,ugm-3,166.61525,R,ugm-3
04-01-2019,11:00,69.94977,R,ugm-3,52.79927,R,ugm-3,160.05409,R,ugm-3
04-01-2019,12:00,59.57664,R,ugm-3,52.18187,R,ugm-3,143.53145,R,ugm-3
04-01-2019,13:00,53.67100,R,ugm-3,54.10121,R,ugm-3,136.39558,R,ugm-3
04-01-2019,14:00,82.49544,R,ugm-3,62.29787,R,ugm-3,188.78911,R,ugm-3
04-01-2019,15:00,75.58002,R,ugm-3,64.95134,R,ugm-3,180.83909,R,ugm-3
04-01-2019,16:00,104.52686,R,ugm-3,75.21124,R,ugm-3,235.48353,R,ugm-3
04-01-2019,17:00,89.34966,R,ugm-3,73.96207,R,ugm-3,210.96297,R,ugm-3
04-01-2019,18:00,100.39597,R,ugm-3,74.60089,R,ugm-3,228.53923,R,ugm-3
04-01-2019,19:00,85.73896,R,ugm-3,73.94297,R,ugm-3,205.40753,R,ugm-3
04-01-2019,20:00,130.32199,R,ugm-3,83.79043,R,ugm-3,283.61469,R,ugm-3
04-01-2019,21:00,115.69557,R,ugm-3,81.79252,R,ugm-3,259.18992,R,ugm-3
04-01-2019,22:00,124.63054,R,ugm-3,82.22048,R,ugm-3,273.31797,R,ugm-3
04-01-2019,23:00,96.20388,R,ugm-3,77.81992,R,ugm-3,225.33048,R,ugm-3
04-01-2019,24:00,15.26900,R,ugm-3,30.17868,R,ugm-3,53.59082,R,ugm-3
05-01-2019,01:00,10.10589,R,ugm-3,24.85650,R,ugm-3,40.35198,R,ugm-3
05-01-2019,02:00,6.47918,R,ugm-3,15.81927,R,ugm-3,25.75387,R,ugm-3
05-01-2019,03:00,4.49264,R,ugm-3,9.70159,R,ugm-3,16.59021,R,ugm-3
05-01-2019,04:00,5.40950,R,ugm-3,9.39539,R,ugm-3,17.68985,R,ugm-3
05-01-2019,05:00,3.72858,R,ugm-3,8.14793,R,ugm-3,13.86502,R,ugm-3
05-01-2019,06:00,10.60507,R,ugm-3,17.01516,R,ugm-3,33.27604,R,ugm-3
05-01-2019,07:00,12.10262,R,ugm-3,18.44816,R,ugm-3,37.00525,R,ugm-3
05-01-2019,08:00,14.63928,R,ugm-3,23.45140,R,ugm-3,45.89798,R,ugm-3
05-01-2019,09:00,22.82994,R,ugm-3,32.83754,R,ugm-3,67.84295,R,ugm-3
05-01-2019,10:00,25.09154,R,ugm-3,35.01143,R,ugm-3,73.48458,R,ugm-3
05-01-2019,11:00,31.75409,R,ugm-3,44.15887,R,ugm-3,92.84779,R,ugm-3
05-01-2019,12:00,67.60350,R,ugm-3,64.34847,R,ugm-3,168.00574,R,ugm-3
05-01-2019,13:00,72.09614,R,ugm-3,70.84677,R,ugm-3,181.39265,R,ugm-3
05-01-2019,14:00,33.34332,R,ugm-3,44.92538,R,ugm-3,96.05109,R,ugm-3
05-01-2019,15:00,32.64039,R,ugm-3,39.11849,R,ugm-3,89.16639,R,ugm-3
05-01-2019,16:00,32.54870,R,ugm-3,40.54996,R,ugm-3,90.45727,R,ugm-3
05-01-2019,17:00,24.72479,R,ugm-3,30.84054,R,ugm-3,68.75135,R,ugm-3
05-01-2019,18:00,30.22598,R,ugm-3,42.53367,R,ugm-3,88.87953,R,ugm-3
05-01-2019,19:00,30.31767,R,ugm-3,42.63214,R,ugm-3,89.11858,R,ugm-3
05-01-2019,20:00,25.76390,R,ugm-3,37.42283,R,ugm-3,76.92693,R,ugm-3
05-01-2019,21:00,22.64656,R,ugm-3,32.78404,R,ugm-3,67.50828,R,ugm-3
05-01-2019,22:00,20.53777,R,ugm-3,32.67074,R,ugm-3,64.16155,R,ugm-3
05-01-2019,23:00,20.44609,R,ugm-3,37.59236,R,ugm-3,68.94259,R,ugm-3
05-01-2019,24:00,22.61600,R,ugm-3,35.22142,R,ugm-3,69.89880,R,ugm-3
06-01-2019,01:00,10.74485,R,ugm-3,16.93516,R,ugm-3,33.41036,R,ugm-3
06-01-2019,02:00,5.00612,R,ugm-3,14.21580,R,ugm-3,21.89174,R,ugm-3
06-01-2019,03:00,3.11356,R,ugm-3,10.02195,R,ugm-3,14.79602,R,ugm-3
06-01-2019,04:00,4.57877,R,ugm-3,8.01398,R,ugm-3,15.03466,R,ugm-3
06-01-2019,05:00,2.22833,R,ugm-3,4.98359,R,ugm-3,8.40032,R,ugm-3
06-01-2019,06:00,5.61662,R,ugm-3,10.90916,R,ugm-3,19.52120,R,ugm-3
06-01-2019,07:00,6.74605,R,ugm-3,11.18202,R,ugm-3,21.52582,R,ugm-3
06-01-2019,08:00,8.60809,R,ugm-3,13.76805,R,ugm-3,26.96694,R,ugm-3
06-01-2019,09:00,9.15754,R,ugm-3,15.55067,R,ugm-3,29.59203,R,ugm-3
06-01-2019,10:00,14.01103,R,ugm-3,21.18652,R,ugm-3,42.66980,R,ugm-3
06-01-2019,11:00,23.71802,R,ugm-3,30.73997,R,ugm-3,67.10710,R,ugm-3
06-01-2019,12:00,20.69604,R,ugm-3,27.68923,R,ugm-3,59.42271,R,ugm-3
06-01-2019,13:00,22.46649,R,ugm-3,28.60198,R,ugm-3,63.05012,R,ugm-3
06-01-2019,14:00,33.08924,R,ugm-3,34.74667,R,ugm-3,85.48279,R,ugm-3
06-01-2019,15:00,30.25040,R,ugm-3,33.41973,R,ugm-3,79.80303,R,ugm-3
06-01-2019,16:00,46.30662,R,ugm-3,48.36796,R,ugm-3,119.37045,R,ugm-3
06-01-2019,17:00,54.88418,R,ugm-3,57.50536,R,ugm-3,141.65993,R,ugm-3
06-01-2019,18:00,42.24678,R,ugm-3,49.72459,R,ugm-3,114.50208,R,ugm-3
06-01-2019,19:00,17.15512,R,ugm-3,27.43880,R,ugm-3,53.74295,R,ugm-3
06-01-2019,20:00,20.57394,R,ugm-3,29.88107,R,ugm-3,61.42734,R,ugm-3
06-01-2019,21:00,27.53367,R,ugm-3,37.72852,R,ugm-3,79.94622,R,ugm-3
06-01-2019,22:00,19.41398,R,ugm-3,32.51877,R,ugm-3,62.28646,R,ugm-3
06-01-2019,23:00,16.57514,R,ugm-3,28.80538,R,ugm-3,54.22024,R,ugm-3
06-01-2019,24:00,15.62887,R,ugm-3,29.25401,R,ugm-3,53.21793,R,ugm-3
07-01-2019,01:00,14.02452,R,ugm-3,28.55796,R,ugm-3,50.06193,R,ugm-3
07-01-2019,02:00,4.14638,R,ugm-3,42.24304,R,ugm-3,48.60073,R,ugm-3
07-01-2019,03:00,4.87809,R,ugm-3,33.35450,R,ugm-3,40.83414,R,ugm-3
07-01-2019,04:00,5.91469,R,ugm-3,18.32841,R,ugm-3,27.39747,R,ugm-3
07-01-2019,05:00,9.51228,R,ugm-3,16.24281,R,ugm-3,30.82811,R,ugm-3
07-01-2019,06:00,26.03683,R,ugm-3,23.63955,R,ugm-3,63.56213,R,ugm-3
07-01-2019,07:00,22.28680,R,ugm-3,23.10002,R,ugm-3,57.27263,R,ugm-3
07-01-2019,08:00,24.66487,R,ugm-3,26.55321,R,ugm-3,64.37215,R,ugm-3
07-01-2019,09:00,30.15272,R,ugm-3,33.05237,R,ugm-3,79.28590,R,ugm-3
07-01-2019,10:00,41.67722,R,ugm-3,48.92575,R,ugm-3,112.82993,R,ugm-3
07-01-2019,11:00,37.59182,R,ugm-3,45.13627,R,ugm-3,102.77625,R,ugm-3
07-01-2019,12:00,25.97585,R,ugm-3,22.68480,R,ugm-3,62.51388,R,ugm-3
07-01-2019,13:00,27.68319,R,ugm-3,23.25932,R,ugm-3,65.70628,R,ugm-3
07-01-2019,14:00,30.51858,R,ugm-3,26.10660,R,ugm-3,72.90110,R,ugm-3
07-01-2019,15:00,23.62827,R,ugm-3,23.13962,R,ugm-3,59.36913,R,ugm-3
07-01-2019,16:00,22.19533,R,ugm-3,21.33435,R,ugm-3,55.36672,R,ugm-3
07-01-2019,17:00,24.35999,R,ugm-3,28.06894,R,ugm-3,65.42040,R,ugm-3
07-01-2019,18:00,30.91492,R,ugm-3,36.21962,R,ugm-3,83.62185,R,ugm-3
07-01-2019,19:00,21.89045,R,ugm-3,25.13717,R,ugm-3,58.70206,R,ugm-3
07-01-2019,20:00,14.35989,R,ugm-3,18.91125,R,ugm-3,40.92944,R,ugm-3
07-01-2019,21:00,12.34768,R,ugm-3,17.70830,R,ugm-3,36.64114,R,ugm-3
07-01-2019,22:00,12.68305,R,ugm-3,14.85933,R,ugm-3,34.30640,R,ugm-3
07-01-2019,23:00,9.75619,R,ugm-3,9.43638,R,ugm-3,24.39566,R,ugm-3
07-01-2019,24:00,6.06713,R,ugm-3,7.85040,R,ugm-3,17.15320,R,ugm-3
08-01-2019,01:00,3.53232,R,ugm-3,4.79478,R,ugm-3,10.21094,R,ugm-3
08-01-2019,02:00,2.31428,R,ugm-3,3.68159,R,ugm-3,7.23010,R,ugm-3
08-01-2019,03:00,2.89285,R,ugm-3,3.74579,R,ugm-3,8.18143,R,ugm-3
08-01-2019,04:00,2.83195,R,ugm-3,2.79271,R,ugm-3,7.13497,R,ugm-3
08-01-2019,05:00,3.41052,R,ugm-3,4.42660,R,ugm-3,9.65599,R,ugm-3
08-01-2019,06:00,11.32779,R,ugm-3,11.78920,R,ugm-3,29.15824,R,ugm-3
08-01-2019,07:00,20.52401,R,ugm-3,22.32796,R,ugm-3,53.79767,R,ugm-3
08-01-2019,08:00,39.52547,R,ugm-3,38.19067,R,ugm-3,98.79555,R,ugm-3
08-01-2019,09:00,35.96270,R,ugm-3,42.17896,R,ugm-3,97.32099,R,ugm-3
08-01-2019,10:00,35.84089,R,ugm-3,37.84691,R,ugm-3,92.80217,R,ugm-3
08-01-2019,11:00,26.79693,R,ugm-3,28.78709,R,ugm-3,69.87514,R,ugm-3
08-01-2019,12:00,31.42549,R,ugm-3,31.77415,R,ugm-3,79.95923,R,ugm-3
08-01-2019,13:00,34.34879,R,ugm-3,33.76086,R,ugm-3,86.42827,R,ugm-3
08-01-2019,14:00,34.01383,R,ugm-3,35.84415,R,ugm-3,87.99796,R,ugm-3
08-01-2019,15:00,35.23187,R,ugm-3,37.97210,R,ugm-3,91.99354,R,ugm-3
08-01-2019,16:00,46.77282,R,ugm-3,51.09929,R,ugm-3,122.81661,R,ugm-3
08-01-2019,17:00,48.53898,R,ugm-3,53.05273,R,ugm-3,127.47813,R,ugm-3
08-01-2019,18:00,30.72512,R,ugm-3,43.40780,R,ugm-3,90.51898,R,ugm-3
08-01-2019,19:00,45.52433,R,ugm-3,62.66961,R,ugm-3,132.47261,R,ugm-3
08-01-2019,20:00,30.14655,R,ugm-3,46.24515,R,ugm-3,92.46921,R,ugm-3
08-01-2019,21:00,23.35596,R,ugm-3,36.44149,R,ugm-3,72.25346,R,ugm-3
08-01-2019,22:00,19.64093,R,ugm-3,30.34130,R,ugm-3,60.45698,R,ugm-3
08-01-2019,23:00,13.03305,R,ugm-3,22.49312,R,ugm-3,42.47686,R,ugm-3
08-01-2019,24:00,8.19133,R,ugm-3,16.17028,R,ugm-3,28.73015,R,ugm-3
09-01-2019,01:00,5.19066,R,ugm-3,11.98487,R,ugm-3,19.94376,R,ugm-3
09-01-2019,02:00,4.94735,R,ugm-3,12.35794,R,ugm-3,19.94376,R,ugm-3
09-01-2019,03:00,7.17771,R,ugm-3,7.56103,R,ugm-3,18.56670,R,ugm-3
09-01-2019,04:00,4.01465,R,ugm-3,5.28821,R,ugm-3,11.44392,R,ugm-3
09-01-2019,05:00,12.68265,R,ugm-3,7.14523,R,ugm-3,26.59169,R,ugm-3
09-01-2019,06:00,26.85558,R,ugm-3,19.31811,R,ugm-3,60.49609,R,ugm-3
09-01-2019,07:00,31.53934,R,ugm-3,32.88746,R,ugm-3,81.24710,R,ugm-3
09-01-2019,08:00,67.33664,R,ugm-3,67.88843,R,ugm-3,171.13650,R,ugm-3
09-01-2019,09:00,58.21243,R,ugm-3,60.60533,R,ugm-3,149.86315,R,ugm-3
09-01-2019,10:00,58.97278,R,ugm-3,58.96462,R,ugm-3,149.38830,R,ugm-3
09-01-2019,11:00,68.37072,R,ugm-3,51.44001,R,ugm-3,156.27364,R,ugm-3
09-01-2019,12:00,83.82104,R,ugm-3,58.28280,R,ugm-3,186.80660,R,ugm-3
09-01-2019,13:00,82.84779,R,ugm-3,58.68294,R,ugm-3,185.71444,R,ugm-3
09-01-2019,14:00,62.86578,R,ugm-3,52.52060,R,ugm-3,148.91345,R,ugm-3
09-01-2019,15:00,67.27581,R,ugm-3,57.25005,R,ugm-3,160.40485,R,ugm-3
09-01-2019,16:00,75.21387,R,ugm-3,63.31283,R,ugm-3,178.63915,R,ugm-3
09-01-2019,17:00,63.99110,R,ugm-3,70.26405,R,ugm-3,168.38236,R,ugm-3
09-01-2019,18:00,55.17103,R,ugm-3,67.54804,R,ugm-3,152.14244,R,ugm-3
09-01-2019,19:00,61.22342,R,ugm-3,70.28158,R,ugm-3,164.15618,R,ugm-3
09-01-2019,20:00,24.05749,R,ugm-3,44.64438,R,ugm-3,81.53201,R,ugm-3
09-01-2019,21:00,33.78998,R,ugm-3,48.85796,R,ugm-3,100.66853,R,ugm-3
09-01-2019,22:00,28.98456,R,ugm-3,58.74287,R,ugm-3,103.18524,R,ugm-3
09-01-2019,23:00,19.52580,R,ugm-3,39.10427,R,ugm-3,69.04342,R,ugm-3
09-01-2019,24:00,10.34077,R,ugm-3,31.86696,R,ugm-3,47.72258,R,ugm-3
10-01-2019,01:00,9.19410,R,ugm-3,28.37642,R,ugm-3,42.47384,R,ugm-3
10-01-2019,02:00,9.35611,R,ugm-3,33.75327,R,ugm-3,48.09910,R,ugm-3
10-01-2019,03:00,5.65012,R,ugm-3,21.05882,R,ugm-3,29.72221,R,ugm-3
10-01-2019,04:00,5.46786,R,ugm-3,11.24126,R,ugm-3,19.62519,R,ugm-3
10-01-2019,05:00,7.65500,R,ugm-3,13.86057,R,ugm-3,25.59808,R,ugm-3
10-01-2019,06:00,16.09980,R,ugm-3,23.09706,R,ugm-3,47.78307,R,ugm-3
10-01-2019,07:00,26.39760,R,ugm-3,32.28915,R,ugm-3,72.76490,R,ugm-3
10-01-2019,08:00,64.91561,R,ugm-3,60.59430,R,ugm-3,160.13019,R,ugm-3
10-01-2019,09:00,47.90450,R,ugm-3,50.55591,R,ugm-3,124.00846,R,ugm-3
10-01-2019,10:00,42.13288,R,ugm-3,38.40571,R,ugm-3,103.00855,R,ugm-3
10-01-2019,11:00,39.24706,R,ugm-3,39.22787,R,ugm-3,99.40586,R,ugm-3
10-01-2019,12:00,50.57768,R,ugm-3,45.08239,R,ugm-3,122.63375,R,ugm-3
10-01-2019,13:00,51.58012,R,ugm-3,47.81168,R,ugm-3,126.90009,R,ugm-3
10-01-2019,14:00,58.08079,R,ugm-3,43.72219,R,ugm-3,132.77817,R,ugm-3
10-01-2019,15:00,45.47434,R,ugm-3,48.45143,R,ugm-3,118.17778,R,ugm-3
10-01-2019,16:00,52.36992,R,ugm-3,54.09047,R,ugm-3,134.38990,R,ugm-3
10-01-2019,17:00,66.52559,R,ugm-3,58.83676,R,ugm-3,160.84124,R,ugm-3
10-01-2019,18:00,63.21450,R,ugm-3,63.06042,R,ugm-3,159.98798,R,ugm-3
10-01-2019,19:00,46.20339,R,ugm-3,53.59088,R,ugm-3,124.43509,R,ugm-3
10-01-2019,20:00,20.26145,R,ugm-3,36.19894,R,ugm-3,67.26605,R,ugm-3
10-01-2019,21:00,20.32220,R,ugm-3,29.80107,R,ugm-3,60.96134,R,ugm-3
10-01-2019,22:00,33.62732,R,ugm-3,39.78604,R,ugm-3,91.34721,R,ugm-3
10-01-2019,23:00,39.39895,R,ugm-3,48.28614,R,ugm-3,108.69701,R,ugm-3
10-01-2019,24:00,12.57607,R,ugm-3,26.93571,R,ugm-3,46.21875,R,ugm-3
11-01-2019,01:00,7.84793,R,ugm-3,20.27219,R,ugm-3,32.30552,R,ugm-3
11-01-2019,02:00,5.01621,R,ugm-3,12.18406,R,ugm-3,19.87547,R,ugm-3
11-01-2019,03:00,8.07043,R,ugm-3,10.71892,R,ugm-3,23.09340,R,ugm-3
11-01-2019,04:00,3.12501,R,ugm-3,8.83727,R,ugm-3,13.62889,R,ugm-3
11-01-2019,05:00,9.01096,R,ugm-3,14.00903,R,ugm-3,27.82565,R,ugm-3
11-01-2019,06:00,13.41026,R,ugm-3,22.02817,R,ugm-3,42.59028,R,ugm-3
11-01-2019,07:00,18.29499,R,ugm-3,27.93063,R,ugm-3,55.98256,R,ugm-3
11-01-2019,08:00,37.89459,R,ugm-3,44.91692,R,ugm-3,103.02116,R,ugm-3
11-01-2019,09:00,66.05007,R,ugm-3,68.04467,R,ugm-3,169.32003,R,ugm-3
11-01-2019,10:00,63.95661,R,ugm-3,62.73654,R,ugm-3,160.80197,R,ugm-3
11-01-2019,11:00,51.94199,R,ugm-3,53.14376,R,ugm-3,132.78703,R,ugm-3
11-01-2019,12:00,35.10332,R,ugm-3,41.71986,R,ugm-3,95.54420,R,ugm-3
11-01-2019,13:00,42.05117,R,ugm-3,45.64198,R,ugm-3,110.11954,R,ugm-3
11-01-2019,14:00,53.73205,R,ugm-3,59.62693,R,ugm-3,142.01492,R,ugm-3
11-01-2019,15:00,50.97111,R,ugm-3,62.20402,R,ugm-3,140.35864,R,ugm-3
11-01-2019,16:00,62.95539,R,ugm-3,73.31032,R,ugm-3,169.84057,R,ugm-3
11-01-2019,17:00,50.66771,R,ugm-3,67.25951,R,ugm-3,144.94892,R,ugm-3
11-01-2019,18:00,57.61556,R,ugm-3,73.83170,R,ugm-3,162.17432,R,ugm-3
11-01-2019,19:00,33.55598,R,ugm-3,52.94172,R,ugm-3,104.39351,R,ugm-3
11-01-2019,20:00,21.08626,R,ugm-3,33.49383,R,ugm-3,65.82565,R,ugm-3
11-01-2019,21:00,16.68697,R,ugm-3,25.19075,R,ugm-3,50.77708,R,ugm-3
11-01-2019,22:00,15.35201,R,ugm-3,20.18660,R,ugm-3,43.72602,R,ugm-3
11-01-2019,23:00,12.59108,R,ugm-3,19.07253,R,ugm-3,38.37858,R,ugm-3
11-01-2019,24:00,5.33983,R,ugm-3,8.56455,R,ugm-3,16.75218,R,ugm-3
12-01-2019,01:00,5.89897,R,ugm-3,7.83591,R,ugm-3,16.88086,R,ugm-3
12-01-2019,02:00,4.92927,R,ugm-3,7.68505,R,ugm-3,15.24317,R,ugm-3
12-01-2019,03:00,2.42423,R,ugm-3,5.16425,R,ugm-3,8.88135,R,ugm-3
12-01-2019,04:00,2.96969,R,ugm-3,3.52480,R,ugm-3,8.07825,R,ugm-3
12-01-2019,05:00,2.06060,R,ugm-3,3.12354,R,ugm-3,6.28308,R,ugm-3
12-01-2019,06:00,5.03028,R,ugm-3,4.38076,R,ugm-3,12.09375,R,ugm-3
12-01-2019,07:00,8.27270,R,ugm-3,7.95979,R,ugm-3,20.64441,R,ugm-3
12-01-2019,08:00,8.96966,R,ugm-3,10.76491,R,ugm-3,24.51820,R,ugm-3
12-01-2019,09:00,14.96964,R,ugm-3,16.20985,R,ugm-3,39.16297,R,ugm-3
12-01-2019,10:00,16.36357,R,ugm-3,20.30836,R,ugm-3,45.39882,R,ugm-3
12-01-2019,11:00,18.36356,R,ugm-3,22.15483,R,ugm-3,50.31190,R,ugm-3
12-01-2019,12:00,21.78779,R,ugm-3,25.92749,R,ugm-3,59.33498,R,ugm-3
12-01-2019,13:00,21.12113,R,ugm-3,20.52489,R,ugm-3,52.91017,R,ugm-3
12-01-2019,14:00,19.09084,R,ugm-3,17.78005,R,ugm-3,47.05226,R,ugm-3
12-01-2019,15:00,15.96964,R,ugm-3,15.10171,R,ugm-3,39.58815,R,ugm-3
12-01-2019,16:00,10.81814,R,ugm-3,12.93818,R,ugm-3,29.52576,R,ugm-3
12-01-2019,17:00,15.27267,R,ugm-3,16.92624,R,ugm-3,40.34400,R,ugm-3
12-01-2019,18:00,13.54540,R,ugm-3,13.85849,R,ugm-3,34.62782,R,ugm-3
12-01-2019,19:00,17.27266,R,ugm-3,18.58375,R,ugm-3,45.06813,R,ugm-3
12-01-2019,20:00,13.45449,R,ugm-3,12.91133,R,ugm-3,33.54127,R,ugm-3
12-01-2019,21:00,14.03025,R,ugm-3,13.82369,R,ugm-3,35.33643,R,ugm-3
12-01-2019,22:00,11.36359,R,ugm-3,12.81045,R,ugm-3,30.23438,R,ugm-3
12-01-2019,23:00,10.39390,R,ugm-3,11.69903,R,ugm-3,27.63612,R,ugm-3
12-01-2019,24:00,6.66664,R,ugm-3,8.15480,R,ugm-3,18.37684,R,ugm-3
13-01-2019,01:00,3.91439,R,ugm-3,3.99593,R,ugm-3,9.99790,R,ugm-3
13-01-2019,02:00,3.55120,R,ugm-3,4.48993,R,ugm-3,9.93502,R,ugm-3
13-01-2019,03:00,1.15010,R,ugm-3,3.99004,R,ugm-3,5.75351,R,ugm-3
13-01-2019,04:00,2.54233,R,ugm-3,2.46840,R,ugm-3,6.36659,R,ugm-3
13-01-2019,05:00,2.57260,R,ugm-3,2.37483,R,ugm-3,6.31943,R,ugm-3
13-01-2019,06:00,3.96483,R,ugm-3,4.29586,R,ugm-3,10.37518,R,ugm-3
13-01-2019,07:00,5.35706,R,ugm-3,4.99073,R,ugm-3,13.20478,R,ugm-3
13-01-2019,08:00,5.05440,R,ugm-3,5.50196,R,ugm-3,13.25194,R,ugm-3
13-01-2019,09:00,6.53743,R,ugm-3,7.75537,R,ugm-3,17.77929,R,ugm-3
13-01-2019,10:00,8.89817,R,ugm-3,9.18173,R,ugm-3,22.82540,R,ugm-3
13-01-2019,11:00,10.68385,R,ugm-3,12.00859,R,ugm-3,28.39027,R,ugm-3
13-01-2019,12:00,12.49981,R,ugm-3,10.59180,R,ugm-3,29.75791,R,ugm-3
13-01-2019,13:00,16.64623,R,ugm-3,13.14726,R,ugm-3,38.67113,R,ugm-3
13-01-2019,14:00,17.16075,R,ugm-3,15.84818,R,ugm-3,42.16096,R,ugm-3
13-01-2019,15:00,18.09899,R,ugm-3,20.44603,R,ugm-3,48.19743,R,ugm-3
13-01-2019,16:00,17.37261,R,ugm-3,19.76772,R,ugm-3,46.40535,R,ugm-3
13-01-2019,17:00,20.09654,R,ugm-3,18.42068,R,ugm-3,49.23495,R,ugm-3
13-01-2019,18:00,17.06995,R,ugm-3,18.67551,R,ugm-3,44.84908,R,ugm-3
13-01-2019,19:00,16.07118,R,ugm-3,19.45239,R,ugm-3,44.09452,R,ugm-3
13-01-2019,20:00,14.58815,R,ugm-3,18.09502,R,ugm-3,40.46320,R,ugm-3
13-01-2019,21:00,13.71044,R,ugm-3,15.90383,R,ugm-3,36.92621,R,ugm-3
13-01-2019,22:00,11.44050,R,ugm-3,11.46149,R,ugm-3,29.00335,R,ugm-3
13-01-2019,23:00,7.53620,R,ugm-3,10.13821,R,ugm-3,21.69356,R,ugm-3
13-01-2019,24:00,8.56524,R,ugm-3,8.93765,R,ugm-3,22.07084,R,ugm-3
14-01-2019,01:00,3.62746,R,ugm-3,4.60695,R,ugm-3,10.16898,R,ugm-3
14-01-2019,02:00,2.94227,R,ugm-3,2.95838,R,ugm-3,7.46980,R,ugm-3
14-01-2019,03:00,2.47876,R,ugm-3,3.40231,R,ugm-3,7.20303,R,ugm-3
14-01-2019,04:00,2.26716,R,ugm-3,3.82092,R,ugm-3,7.29718,R,ugm-3
14-01-2019,05:00,4.50410,R,ugm-3,8.39436,R,ugm-3,15.30055,R,ugm-3
14-01-2019,06:00,13.11932,R,ugm-3,17.64103,R,ugm-3,37.75704,R,ugm-3
14-01-2019,07:00,33.67493,R,ugm-3,38.89798,R,ugm-3,90.53215,R,ugm-3
14-01-2019,08:00,60.85065,R,ugm-3,62.24467,R,ugm-3,155.54770,R,ugm-3
14-01-2019,09:00,66.47322,R,ugm-3,68.40620,R,ugm-3,170.33038,R,ugm-3
14-01-2019,10:00,60.60882,R,ugm-3,64.92232,R,ugm-3,157.85455,R,ugm-3
14-01-2019,11:00,35.36774,R,ugm-3,39.97450,R,ugm-3,94.20428,R,ugm-3
14-01-2019,12:00,51.02628,R,ugm-3,50.56785,R,ugm-3,128.80706,R,ugm-3
14-01-2019,13:00,48.30569,R,ugm-3,45.46489,R,ugm-3,119.53257,R,ugm-3
14-01-2019,14:00,49.09164,R,ugm-3,45.76630,R,ugm-3,121.03909,R,ugm-3
14-01-2019,15:00,47.97317,R,ugm-3,50.77676,R,ugm-3,124.33459,R,ugm-3
14-01-2019,16:00,37.12102,R,ugm-3,44.63045,R,ugm-3,101.54854,R,ugm-3
14-01-2019,17:00,41.62511,R,ugm-3,45.68055,R,ugm-3,109.50483,R,ugm-3
14-01-2019,18:00,34.15859,R,ugm-3,47.85457,R,ugm-3,100.23034,R,ugm-3
14-01-2019,19:00,33.07035,R,ugm-3,44.67408,R,ugm-3,95.38125,R,ugm-3
14-01-2019,20:00,23.24598,R,ugm-3,35.16288,R,ugm-3,70.80622,R,ugm-3
14-01-2019,21:00,25.93634,R,ugm-3,35.27479,R,ugm-3,75.04329,R,ugm-3
14-01-2019,22:00,21.85545,R,ugm-3,29.33871,R,ugm-3,62.84993,R,ugm-3
14-01-2019,23:00,14.84236,R,ugm-3,19.47154,R,ugm-3,42.22951,R,ugm-3
14-01-2019,24:00,10.09643,R,ugm-3,13.47236,R,ugm-3,28.95334,R,ugm-3
15-01-2019,01:00,6.96424,R,ugm-3,8.18322,R,ugm-3,18.86158,R,ugm-3
15-01-2019,02:00,4.14634,R,ugm-3,10.18541,R,ugm-3,16.54305,R,ugm-3
15-01-2019,03:00,2.08323,R,ugm-3,3.47937,R,ugm-3,6.67362,R,ugm-3
15-01-2019,04:00,4.74011,R,ugm-3,3.11833,R,ugm-3,10.38640,R,ugm-3
15-01-2019,05:00,4.01551,R,ugm-3,3.66540,R,ugm-3,9.82243,R,ugm-3
15-01-2019,06:00,7.39699,R,ugm-3,8.20898,R,ugm-3,19.55087,R,ugm-3
15-01-2019,07:00,18.96045,R,ugm-3,18.20699,R,ugm-3,47.27928,R,ugm-3
15-01-2019,08:00,27.38397,R,ugm-3,30.76365,R,ugm-3,72.75181,R,ugm-3
15-01-2019,09:00,35.05268,R,ugm-3,36.15912,R,ugm-3,89.90582,R,ugm-3
15-01-2019,10:00,37.16611,R,ugm-3,37.10134,R,ugm-3,94.08858,R,ugm-3
15-01-2019,11:00,34.99230,R,ugm-3,31.45798,R,ugm-3,85.11210,R,ugm-3
15-01-2019,12:00,37.31707,R,ugm-3,36.58789,R,ugm-3,93.80659,R,ugm-3
15-01-2019,13:00,27.83684,R,ugm-3,27.90737,R,ugm-3,70.58993,R,ugm-3